Torna al catalogo

NOAA 16 DEB

AttivoSSO
NORAD 41049·DEBRIS·🇺🇸 United States

Lanciato Sep 21, 2000 da Vandenberg Space Force Base

Loading…

Prossimi Passaggi (prossime 24 ore)

TLE

AggiornatoSource: Space-Track

Epoca: Sep 14, 2026, 14:39 UTC

1 41049U 00055G   26257.61046504  .00001851  00000-0  76882-3 0  9995
2 41049  98.6282 318.4668 0004887 255.8155 104.2484 14.27646502558445

Traccia NOAA 16 DEB in tempo reale con AllMySat

Download on the App Store